SCP
0 0 0 0 0 0 0 0 1 1 1 1 1 1 1 1 1 1 1 1 1 1 1 1 1 1 1 1 1 1 1 1 1 1 0 0 0 0 0 0 0 0 0
0 0 0 0 0 0 0 0 0 1 1 1 1 1 1 1 1 1 1 1 1 1 1 1 1 1 1 1 1 1 1 1 1 1 0 0 0 0 0 0 0 0 0
0 0 0 0 0 0 0 0 0 0 1 1 1 1 1 1 1 1 1 1 1 1 1 1 1 1 1 1 1 1 1 1 1 1 0 0 0 0 0 0 0 0 0
0 0 0 0 0 0 0 0 0 0 0 1 1 1 1 1 1 1 1 0 0 0 0 0 1 1 1 1 1 1 1 1 1 0 0 0 0 0 0 0 0 0 0
0 0 0 0 0 0 0 0 0 0 0 1 1 1 1 1 1 1 0 0 0 0 0 0 0 0 0 0 0 0 0 0 0 0 0 0 0 0 0 0 0 0 0
0 0 0 0 0 0 0 0 0 0 0 0 1 1 1 1 1 0 0 0 0 0 0 0 0 0 0 0 0 0 0 0 0 0 0 0 0 0 0 0 0 0 0
0 0 0 0 0 0 0 0 0 0 0 0 0 0 0 1 0 0 0 0 0 0 0 0 0 0 0 0 0 0 0 0 0 0 0 0 0 0 0 0 0 0 0
0 0 0 0 0 0 0 0 0 0 0 0 0 0 0 0 0 0 0 0 0 0 0 0 0 0 0 0 0 0 0 0 0 0 0 0 0 0 0 0 0 0 0
0 0 0 0 0 0 0 0 0 0 0 0 0 0 0 0 0 0 0 0 0 0 0 0 0 0 0 0 0 0 0 0 0 0 0 0 0 0 0 0 0 0 0
0 0 0 0 0 0 0 0 0 0 0 0 0 0 0 0 0 0 0 0 0 0 0 0 0 0 0 0 0 0 0 0 0 0 0 0 0 0 0 0 0 0 0
0 0 0 0 0 0 0 0 0 0 0 0 0 0 0 0 0 0 0 0 0 0 0 0 0 0 0 0 0 0 0 0 0 0 0 0 0 0 0 0 0 0 0
0 0 0 0 0 0 0 0 0 0 0 0 0 0 0 0 0 0 0 0 0 0 0 0 0 0 0 0 0 0 0 0 0 0 0 0 0 0 0 0 0 0 0
0 0 0 0 0 0 0 0 0 0 0 0 0 0 0 0 0 0 0 0 0 0 0 0 0 0 0 0 0 0 0 0 0 0 0 0 0 0 0 0 0 0 0
0 0 0 0 0 0 0 0 0 0 0 0 0 0 0 0 0 0 0 0 0 0 0 0 0 0 0 0 0 0 0 0 0 0 0 0 0 0 0 0 0 0 0
0 0 0 0 0 0 0 0 0 0 0 0 0 0 0 0 0 0 0 0 0 0 0 0 0 0 0 0 0 0 0 0 0 0 0 0 0 0 0 0 0 0 0
0 0 0 0 0 0 0 0 0 0 0 0 0 0 0 0 0 0 0 0 0 0 0 0 0 0 0 0 0 0 0 0 0 0 0 0 0 0 0 0 0 0 0
0 0 0 0 0 0 0 0 0 0 0 0 0 0 0 0 0 0 0 0 0 0 0 0 0 0 0 0 0 0 0 0 0 0 0 0 0 0 0 0 0 0 0
0 0 0 0 0 0 0 0 0 0 0 0 0 0 0 0 0 0 0 0 0 0 0 0 0 0 0 0 0 0 0 0 0 0 0 0 0 0 0 0 0 0 0
0 0 0 0 0 0 0 0 0 0 0 0 0 0 0 0 0 0 0 0 0 0 0 0 0 0 0 0 0 0 0 0 0 0 0 0 0 0 0 0 0 0 0
0 0 0 0 0 0 0 0 0 0 0 0 0 0 0 0 0 0 0 0 0 0 0 0 0 0 0 0 0 0 0 0 0 0 0 0 0 0 0 0 0 0 0
0 0 0 0 0 0 0 0 0 0 0 0 0 0 0 0 0 0 0 0 0 0 0 0 0 0 0 0 0 0 0 0 0 0 0 0 0 0 0 0 0 0 0
0 0 0 0 0 0 0 0 0 0 0 0 0 0 0 0 0 0 0 0 0 0 0 0 0 0 0 0 0 0 0 0 0 0 0 0 0 0 0 0 0 0 0
0 0 0 0 0 0 0 0 0 0 0 0 0 0 0 0 0 0 0 0 0 0 0 0 0 0 0 0 0 0 0 0 0 0 0 0 0 0 0 0 0 0 0
0 0 0 0 0 0 0 0 0 0 0 0 0 0 0 0 0 0 0 0 0 0 -0 -0 -0 0 0 0 0 0 0 0 0 0 0 0 0 0 0 0 0 0 0
0 0 0 0 0 0 0 0 0 0 0 0 0 0 0 0 0 0 0 0 0 0 0 0 0 0 0 0 0 0 0 0 0 0 0 0 0 0 0 0 0 0 0
0 0 0 0 0 0 0 0 0 0 0 0 0 0 0 0 0 0 0 0 0 0 0 0 0 0 0 0 0 0 0 0 0 0 0 0 0 0 0 0 0 0 0
Wind_Speed
7 7 8 8 7 7 7 6 4 3 1 1 0 0 0 1 0 0 1 1 2 2 3 4 3 4 4 4 5 4 5 5 4 4 3 2 2 2 1 2 3 4 4
7 8 8 8 8 8 7 6 5 4 3 2 1 1 1 1 1 1 1 1 2 2 2 3 3 3 3 4 5 5 4 4 5 4 3 3 3 2 1 1 2 3 3
6 7 7 8 8 8 8 6 6 5 4 3 1 1 0 0 0 1 1 2 2 2 2 2 3 3 3 3 4 5 6 5 5 4 4 4 4 3 2 1 2 3 3
6 7 7 8 8 8 7 6 6 6 5 4 3 1 1 1 1 2 2 2 2 2 2 2 2 2 2 3 4 4 4 5 5 4 3 2 2 4 3 2 2 3 4
6 6 7 7 7 7 6 6 6 6 6 5 4 3 3 2 2 2 2 2 2 3 3 2 2 1 1 2 2 2 3 3 4 3 3 2 2 3 4 4 4 3 3
7 7 7 7 7 7 7 6 7 7 7 7 6 5 5 4 4 4 3 3 3 4 5 4 3 2 1 0 1 1 1 1 3 3 3 3 3 4 3 4 5 5 3
7 6 7 7 7 7 7 7 7 7 7 7 7 6 6 6 6 5 4 4 4 4 6 5 4 3 3 3 2 1 2 1 1 1 1 2 2 2 2 4 5 5 4
7 7 6 6 7 7 7 7 7 7 7 7 7 7 7 5 5 6 6 6 5 5 6 5 5 4 4 4 3 2 2 1 0 0 0 1 1 2 2 4 6 6 4
8 7 6 6 6 7 7 7 7 7 7 7 7 7 7 7 7 6 6 6 5 5 6 6 6 5 5 5 4 3 3 3 2 2 2 2 2 2 2 3 4 5 6
8 7 6 6 6 6 6 6 7 7 6 6 6 6 7 7 7 7 8 7 7 7 7 7 7 7 6 6 5 5 5 5 4 4 5 4 3 3 3 3 2 2 4
8 7 6 5 5 5 6 6 6 6 6 6 6 7 7 7 7 7 7 7 7 7 7 7 7 8 7 7 7 7 7 7 7 6 6 6 5 4 4 4 4 4 5
9 8 7 6 5 6 6 6 6 6 6 6 6 7 7 7 8 8 7 7 7 7 8 7 8 8 8 8 9 9 9 9 9 8 8 7 6 6 5 4 4 4 4
9 8 7 6 6 6 5 6 6 6 6 6 7 7 7 8 8 7 7 7 8 8 8 8 9 9 9 9 9 9 9 10 10 9 9 8 7 7 6 5 5 5 6
9 8 7 7 6 6 6 6 6 5 6 6 7 8 8 7 7 7 7 7 7 8 8 9 9 9 9 9 9 9 10 10 10 10 10 9 8 8 6 5 6 6 7
10 9 8 7 7 6 6 6 6 5 5 6 7 7 7 7 7 7 7 7 7 8 8 9 9 9 9 9 9 8 9 10 10 10 11 11 12 12 8 6 6 6 6
11 10 9 8 7 7 7 6 6 5 5 6 7 7 7 7 7 7 7 7 8 8 9 9 10 10 9 10 11 8 9 10 10 10 10 10 11 12 13 13 12 8 5
12 11 9 8 7 7 6 6 6 6 6 6 7 7 7 7 7 7 8 8 8 9 9 9 10 10 10 10 10 9 8 10 9 9 8 8 9 8 10 10 11 12 11
12 11 10 9 8 7 6 6 6 5 6 6 6 7 7 7 7 7 8 8 7 7 8 8 9 9 9 9 8 6 9 10 10 9 9 9 9 9 7 8 9 9 8
11 10 10 9 8 7 7 6 6 6 6 6 6 6 6 7 7 7 7 7 7 7 7 8 9 9 8 9 8 6 7 8 10 9 10 9 9 9 7 6 7 8 6
11 10 10 9 8 7 7 6 6 6 6 6 6 6 6 7 7 7 7 6 6 6 7 8 8 9 8 9 10 8 5 7 7 7 8 11 9 9 9 5 6 7 6
12 11 10 9 8 8 7 7 7 7 6 6 6 6 6 6 6 6 5 5 5 6 7 8 7 8 7 8 10 11 5 5 5 6 6 7 7 7 8 6 6 5 3
12 11 10 9 8 8 7 8 7 7 7 7 7 6 5 5 6 5 5 5 5 6 6 6 6 6 6 7 7 8 8 7 5 5 6 7 5 5 5 5 5 4 5
11 10 10 10 8 7 7 8 8 7 7 7 7 6 6 5 5 4 4 4 3 3 4 4 5 5 5 6 4 4 4 5 4 5 6 3 1 2 3 4 2 4 1
11 10 10 10 9 8 8 8 7 6 7 7 6 6 5 5 5 3 3 4 3 4 4 4 4 5 4 4 3 3 3 4 3 3 5 4 2 1 2 2 1 1 4
10 9 9 10 10 9 8 8 7 6 7 7 6 5 5 5 5 5 6 5 6 6 4 4 3 4 5 6 8 6 5 5 5 3 1 2 2 2 2 2 2 2 1
10 10 10 10 10 9 8 7 6 6 6 6 5 5 5 4 5 6 6 8 7 5 6 7 7 6 7 4 3 4 3 4 6 5 1 2 2 2 3 2 2 2 2
Wind_Direction
81 70 62 58 55 49 44 36 29 26 12 347 334 72 256 273 275 303 327 291 279 265 256 249 227 230 229 229 224 215 218 218 198 191 190 196 219 233 232 202 186 169 159
91 71 60 55 51 44 35 32 25 19 5 7 350 324 317 314 347 1 29 327 294 284 261 270 250 236 234 227 225 213 221 218 199 197 189 191 190 196 233 188 162 150 148
89 74 59 51 46 40 31 26 24 21 14 5 22 75 118 254 71 33 23 6 346 332 321 297 273 250 238 234 233 225 219 217 208 202 196 196 194 158 160 179 149 142 136
87 73 61 52 43 37 34 32 27 30 25 19 31 39 30 359 5 6 25 18 16 359 334 308 283 258 247 251 247 230 234 224 213 202 217 228 170 171 156 139 127 126 125
89 77 65 59 51 42 39 38 35 36 30 30 33 24 39 38 41 46 48 32 37 26 17 2 337 287 251 245 246 243 238 233 222 200 194 201 201 190 160 154 142 108 85
95 83 73 66 56 47 42 40 41 40 32 30 35 36 42 45 45 42 42 44 40 33 31 24 19 24 19 338 238 234 226 234 222 207 192 190 197 194 172 159 153 131 100
102 86 73 64 55 46 40 39 42 40 35 34 38 43 43 48 47 35 37 40 42 35 25 25 24 31 31 22 12 57 46 21 263 229 210 205 209 187 166 149 141 129 117
107 91 78 69 62 52 45 41 42 43 40 41 41 45 45 46 46 38 36 39 37 36 29 30 32 34 39 41 33 46 51 44 25 35 190 183 147 144 148 147 143 137 131
114 102 87 75 66 58 50 46 47 48 45 48 52 53 52 51 51 47 43 42 36 39 37 38 43 44 44 41 41 48 46 44 51 67 75 73 78 101 120 136 154 151 149
121 109 94 84 75 68 64 58 55 53 48 52 57 62 59 57 54 50 49 48 43 40 39 40 45 48 51 50 51 60 55 58 56 56 64 65 68 75 97 115 112 120 137
131 121 109 95 87 80 74 70 66 61 54 57 65 66 62 58 58 54 51 50 48 45 46 45 48 50 53 55 60 64 65 68 65 63 68 66 66 76 85 96 104 111 122
132 127 118 106 95 84 77 73 70 65 58 63 67 65 64 62 60 57 53 54 53 52 53 53 56 58 57 57 60 63 63 65 65 63 67 67 70 74 78 92 104 110 120
135 130 122 115 105 95 88 79 73 69 66 71 77 73 68 66 64 61 56 56 57 56 57 58 60 61 61 61 62 65 65 63 61 58 61 65 72 75 76 87 101 111 118
140 135 131 126 118 110 102 95 82 76 75 75 76 75 70 67 65 61 58 58 59 61 60 60 62 62 63 63 65 69 68 66 62 58 58 58 62 68 79 89 100 112 121
146 143 140 132 127 118 109 100 93 85 86 88 85 80 78 75 70 66 64 63 63 66 66 67 65 61 59 52 54 68 73 73 70 66 63 63 61 54 52 69 88 109 121
150 147 144 138 135 125 115 106 97 91 91 90 87 83 79 76 74 75 74 69 68 67 66 66 68 64 57 38 35 44 68 69 71 72 73 77 72 71 66 62 60 61 92
151 150 146 141 134 124 118 112 109 105 99 94 91 88 84 80 76 76 76 73 70 72 70 68 69 69 57 41 40 38 63 68 66 65 64 68 69 72 83 86 86 71 59
150 145 140 137 130 124 121 120 117 113 107 100 96 92 90 91 86 79 76 73 70 70 71 73 74 74 60 39 39 38 71 71 69 67 66 67 62 48 50 82 84 82 70
143 139 139 138 137 137 136 126 115 108 100 92 89 90 91 93 89 84 80 80 80 76 75 73 76 78 66 33 20 10 85 81 74 67 58 58 66 32 12 78 90 91 95
136 137 139 141 142 139 136 127 118 108 99 96 92 89 87 89 87 84 83 84 84 85 84 77 73 73 66 37 19 359 77 84 88 87 80 61 46 26 11 63 83 88 87
138 141 141 140 136 137 136 126 116 105 102 104 102 93 91 94 91 90 92 96 93 89 88 89 83 75 66 61 33 13 39 65 76 82 80 70 43 35 23 23 57 49 3
143 144 139 133 135 140 136 125 114 111 111 111 110 106 103 101 101 99 96 95 106 114 108 103 99 92 81 60 53 38 30 11 59 60 64 73 51 47 35 43 41 330 292
142 143 139 135 136 139 135 123 117 120 118 115 111 106 101 95 101 109 114 117 116 108 107 108 104 102 102 108 106 81 51 21 41 60 62 59 55 194 120 86 324 289 301
143 143 141 139 137 134 126 121 123 124 123 117 115 114 109 108 102 96 94 92 86 91 99 98 97 100 101 83 86 113 131 156 142 116 137 178 224 217 97 166 202 28 31
147 147 143 139 136 132 125 126 130 132 124 118 117 116 112 106 104 83 49 45 57 33 21 53 74 77 82 52 18 359 20 14 27 337 175 152 134 114 76 67 55 45 79
148 147 145 142 137 134 131 134 137 135 133 130 125 120 120 120 122 121 113 60 55 63 47 26 16 66 67 58 25 19 6 341 324 306 28 51 38 30 36 36 47 50 30